Simultaneous Nadir Overpasses (SNOs) Predictions

Prediction of SNOs between AQUA and GOES-15 Satellite Orbit:

Table of predicted SNOs for the next 14.0 days since TLE Epoch: 3/9/2024
Index Date Time (AQUA) AQUA Lat,Lon GOES-15 Lat,Lon Distance(km) Time Diff (sec)
1 03/10/2024 09:52:41 0.27, 62.72 -0.06, 61.27 165.51 80
2 03/10/2024 22:13:00 0.77, 57.80 0.07, 61.19 385.69 64
3 03/12/2024 21:57:14 -0.04, 61.65 0.06, 61.18 53.45 80
4 03/14/2024 21:41:28 -0.84, 65.51 0.07, 61.18 492.39 80
5 03/15/2024 10:01:56 -0.19, 60.55 -0.07, 61.26 79.33 80
6 03/17/2024 09:46:08 0.60, 64.42 -0.07, 61.26 359.49 80
7 03/17/2024 22:06:27 0.47, 59.50 0.08, 61.19 191.96 80
8 03/19/2024 21:50:39 -0.38, 63.36 0.08, 61.19 247.00 80
9 03/20/2024 10:11:07 -0.67, 58.41 -0.09, 61.27 324.45 80
10 03/22/2024 09:55:17 0.11, 62.28 -0.09, 61.27 114.81 80
11 03/22/2024 22:15:36 0.94, 57.37 0.09, 61.20 436.75 80
